Temperature
24 25 24 23 23 22 21 21 21 20 20 20 20 20 20 20 20 20 20 19 19 19 19 19 19 19 19 19 19 19 19 19 19 19 19 19 19 18 18 17 17 18 17
24 25 24 24 23 22 21 21 21 20 20 20 20 20 20 20 20 20 19 19 19 19 19 19 19 19 19 19 19 19 19 19 19 19 19 19 18 18 18 17 17 18 17
24 25 24 24 23 22 22 21 21 20 20 20 20 19 19 19 20 20 19 19 19 19 19 19 19 19 19 19 19 19 19 19 19 18 18 18 18 18 18 17 18 18 18
24 25 24 24 23 23 22 21 21 20 20 20 20 19 19 19 19 20 19 19 19 19 19 19 19 19 19 20 20 19 19 19 18 18 17 17 18 18 18 18 18 18 18
23 24 24 24 23 23 22 22 21 21 20 20 20 20 20 19 19 19 19 19 19 19 19 19 19 19 19 20 20 19 19 19 18 18 18 18 18 19 18 18 18 18 18
22 24 24 24 23 23 22 22 21 21 20 20 20 20 20 20 20 20 19 19 19 19 19 19 19 19 20 20 20 20 19 19 19 18 18 18 18 19 19 18 18 18 18
23 23 24 24 23 23 22 22 21 21 21 20 20 20 20 20 20 20 20 20 19 19 20 20 20 20 20 20 20 19 19 19 19 18 18 18 18 19 19 19 18 18 18
23 23 24 23 23 23 22 22 21 21 21 20 20 20 20 20 20 20 20 20 20 20 20 20 20 20 20 20 19 19 19 19 19 18 18 18 19 19 19 19 18 18 18
23 23 24 23 23 22 22 22 21 21 21 21 20 20 20 20 20 20 20 20 20 20 20 20 20 19 19 19 19 19 19 19 19 19 19 19 19 19 19 19 19 18 18
24 23 23 23 22 22 22 22 21 21 21 21 20 20 20 20 20 20 20 20 20 20 20 19 19 19 19 19 19 19 19 19 19 19 19 19 19 19 19 19 18 18 18
24 22 22 21 22 21 21 21 21 21 21 20 20 20 20 20 20 20 20 20 20 19 19 19 19 19 19 19 19 19 19 19 19 19 19 19 19 19 19 19 18 18 18
24 23 22 21 21 20 20 20 20 20 20 20 20 20 20 20 19 19 19 19 19 19 19 19 19 19 19 19 19 19 19 19 19 19 19 19 19 19 19 19 19 18 18
24 23 22 21 20 20 20 20 20 19 19 20 19 19 19 19 19 19 19 19 18 18 18 18 18 18 18 18 18 18 18 18 18 19 19 19 19 19 19 19 19 19 18
23 23 22 21 21 20 20 20 20 20 20 19 19 19 19 18 18 18 19 19 18 18 18 18 18 18 18 18 18 18 18 18 18 19 19 19 19 19 19 19 19 19 18
22 22 22 21 20 20 20 20 20 20 20 19 19 19 19 18 18 18 18 18 18 18 18 18 18 18 18 18 18 18 18 18 18 19 19 18 18 19 19 19 19 19 19
22 21 21 21 20 20 19 19 19 19 19 19 19 19 19 18 18 18 18 18 18 18 18 18 18 18 18 18 18 18 18 18 18 18 18 18 18 18 18 19 19 19 19
21 21 20 20 19 19 19 19 19 19 19 19 19 18 18 18 18 18 18 18 18 18 18 18 17 17 17 17 18 18 18 18 18 18 18 18 18 18 18 19 19 19 19
20 20 20 19 19 19 18 19 18 18 18 18 18 18 18 18 17 17 17 17 17 17 17 17 17 17 17 17 17 18 18 18 18 18 18 18 18 18 18 18 18 18 18
19 19 19 19 19 18 18 18 18 18 18 18 17 17 17 17 17 17 17 17 17 17 17 17 17 17 17 17 17 17 18 18 18 18 18 18 18 18 18 18 18 18 18
19 18 18 18 18 18 18 18 17 17 17 17 17 17 17 17 16 16 16 16 16 16 16 16 16 16 16 17 17 17 17 18 18 18 18 18 18 18 18 18 18 18 18
18 18 18 18 18 18 18 17 17 17 17 17 16 16 16 16 16 16 16 16 16 16 16 16 16 16 16 16 16 17 17 18 18 18 18 18 18 18 18 18 18 18 18
18 18 17 17 17 17 17 17 17 17 17 17 16 16 16 16 16 15 15 15 15 15 15 16 16 16 16 16 16 17 17 18 18 18 18 18 18 18 18 18 18 18 18
18 18 18 17 17 17 17 17 16 16 16 16 16 16 16 15 15 15 15 15 15 15 15 15 15 15 16 16 16 16 17 18 18 18 18 18 18 18 18 18 18 18 18
18 18 17 17 16 16 16 16 16 16 16 16 16 15 15 15 15 15 15 15 15 15 15 15 15 15 16 16 16 16 17 17 18 18 18 18 18 18 18 18 18 18 18
18 18 18 17 16 16 15 15 15 15 15 15 15 15 15 15 15 15 14 15 14 14 14 15 15 15 15 15 16 16 16 17 17 17 18 18 18 18 18 18 18 18 17
19 18 18 17 16 16 15 15 14 14 14 14 14 14 14 14 14 14 14 14 14 14 14 14 14 14 15 15 15 15 16 16 17 17 18 18 18 18 18 18 18 18 17
Wind_Speed
18 20 22 19 17 15 15 15 15 14 14 13 12 12 11 11 11 11 11 11 11 11 11 10 9 9 10 10 11 12 13 13 14 15 15 15 13 12 11 9 13 16 16
22 21 22 20 17 16 15 15 15 14 14 13 13 12 12 11 11 10 10 10 10 10 10 10 10 10 10 10 10 10 10 11 11 13 14 14 12 11 11 10 14 15 16
22 20 21 19 17 16 15 15 15 14 14 13 13 12 12 11 10 10 10 9 9 9 9 9 9 10 10 10 9 9 8 8 8 10 12 13 13 11 12 15 18 16 15
21 19 19 20 18 16 15 15 15 14 14 13 13 12 12 11 10 10 9 9 9 9 9 9 9 9 9 9 8 7 6 5 6 7 9 9 13 13 12 13 14 14 13
19 18 20 21 18 17 15 15 14 14 13 13 12 12 11 11 10 10 9 9 8 8 8 8 8 8 8 8 7 6 4 4 5 8 7 10 15 14 12 12 12 12 12
19 19 21 20 19 17 15 14 14 14 13 13 12 11 11 11 10 10 9 9 8 8 8 8 8 8 8 7 7 6 5 5 6 9 5 13 15 14 12 11 11 11 11
19 19 21 20 19 17 16 14 13 13 12 12 12 11 11 10 10 10 9 9 9 9 8 8 8 8 8 8 7 7 6 7 10 8 4 13 16 16 13 11 11 11 11
20 19 19 19 18 16 15 14 13 12 12 11 11 11 11 10 10 10 10 10 10 10 9 9 9 9 9 9 8 8 8 9 10 10 8 15 20 18 15 12 11 11 11
21 20 16 17 16 15 14 14 13 12 12 11 11 11 11 11 11 11 11 11 11 11 11 11 11 11 11 11 10 10 10 11 12 12 7 14 21 20 17 14 13 12 12
19 19 16 15 15 14 14 14 13 12 12 12 12 12 12 12 12 13 13 14 13 13 13 12 12 12 13 13 13 13 12 11 13 14 8 14 24 22 19 16 15 14 13
15 16 15 15 13 13 14 15 15 13 13 12 12 13 13 12 14 15 18 18 18 16 15 15 15 14 14 15 16 16 14 12 13 13 9 17 25 23 20 18 17 16 15
12 13 12 14 12 11 10 13 12 13 14 14 13 14 13 13 13 14 18 22 20 19 17 17 17 16 15 14 17 18 13 15 15 13 11 22 24 23 22 19 18 17 17
8 8 10 11 8 8 6 9 7 8 10 14 14 14 13 11 11 10 7 13 16 17 15 15 16 15 14 13 11 14 16 14 13 12 10 24 24 23 22 20 19 18 18
7 6 6 9 6 2 1 3 4 4 4 6 10 12 9 5 5 3 2 5 9 11 10 9 8 12 13 14 12 11 14 12 10 8 11 21 22 22 22 21 20 19 18
5 4 4 6 5 2 2 3 2 2 1 1 1 5 4 3 3 4 3 2 3 6 6 6 6 8 9 8 9 9 9 11 11 9 11 20 21 22 22 21 20 20 20
5 4 5 5 5 3 1 2 3 4 2 3 3 2 2 1 2 2 3 4 4 4 4 4 7 7 7 6 9 8 7 9 9 8 10 17 21 23 22 22 22 21 21
7 7 6 5 5 3 2 3 3 3 2 2 2 4 3 3 2 3 4 4 5 6 6 5 6 6 7 8 10 9 7 7 6 8 9 13 17 20 22 22 23 22 22
9 8 7 5 6 4 2 2 3 3 3 2 2 3 4 5 4 3 4 5 5 5 4 6 7 7 7 8 7 7 7 7 9 8 8 10 12 14 19 23 23 23 23
9 8 7 7 6 5 3 2 2 2 3 2 3 2 3 5 6 4 4 4 4 4 5 8 6 6 7 8 7 7 7 8 9 10 8 8 11 13 15 21 24 24 23
7 7 6 5 5 4 3 2 2 2 3 2 2 2 3 4 6 4 4 4 4 4 5 6 5 5 6 6 9 8 7 8 8 8 9 8 10 13 15 16 18 20 24
6 6 5 5 4 3 3 4 3 3 3 3 2 1 2 3 4 3 4 4 4 5 5 6 5 6 6 6 5 5 6 7 8 7 8 8 9 10 12 13 16 15 16
5 4 4 4 4 4 3 3 3 4 4 2 1 1 2 2 3 4 3 3 4 4 4 4 4 4 5 5 4 3 4 4 6 10 8 8 8 7 8 11 12 13 13
4 3 4 4 3 4 5 4 5 3 3 2 2 1 1 2 2 3 3 3 3 4 3 3 4 5 5 4 5 3 3 3 4 5 8 7 6 5 6 6 9 11 11
2 2 3 2 2 3 5 5 7 6 5 5 3 2 2 2 2 2 2 3 3 3 3 4 3 4 5 4 4 4 3 2 1 2 4 5 7 6 5 6 7 8 11
1 0 1 2 0 2 3 5 6 6 6 6 6 5 4 4 3 3 2 2 2 3 3 4 3 4 4 4 3 2 4 4 4 3 4 4 4 5 5 5 4 6 9
2 2 2 1 1 2 4 5 6 7 7 8 8 8 6 4 4 4 3 2 2 2 3 4 4 4 4 4 3 2 3 3 3 4 4 5 5 5 6 5 5 5 6
Wind_Direction
127 136 140 137 136 136 138 142 143 143 140 138 134 131 125 121 117 114 110 109 108 108 107 107 105 102 97 90 87 86 87 90 93 96 96 94 92 89 84 93 114 98 102
128 136 140 138 138 138 140 143 145 144 143 142 140 138 136 132 129 125 120 117 116 114 113 111 111 108 105 101 100 99 100 104 109 113 114 106 96 86 75 77 98 106 107
126 135 140 139 139 138 140 144 146 147 147 147 146 145 143 141 138 135 132 129 124 120 118 118 116 115 113 112 112 111 115 124 131 140 149 128 111 95 87 91 101 108 108
129 140 142 142 141 141 141 144 147 149 150 151 151 150 149 148 147 146 144 139 133 128 127 129 126 124 123 123 124 126 135 150 162 180 200 144 125 110 103 103 107 111 112
133 138 139 145 144 144 144 146 149 152 154 156 157 157 156 156 156 155 153 148 145 142 141 141 138 136 136 137 139 147 169 196 216 234 227 124 116 124 119 117 117 118 119
137 136 142 147 147 148 149 151 153 155 157 160 162 162 162 162 163 163 162 160 159 157 156 155 152 152 154 157 162 174 204 232 252 243 204 128 126 137 134 133 131 130 129
140 135 144 149 150 152 154 156 159 161 163 166 167 169 170 172 174 174 174 173 170 170 170 170 169 168 170 175 183 195 218 244 259 265 190 130 137 145 147 149 147 145 144
136 135 143 149 152 155 158 162 165 167 170 173 175 178 181 183 185 188 187 185 184 183 184 183 184 183 185 189 198 210 226 248 250 253 192 143 148 152 155 160 161 161 159
134 134 145 150 154 159 163 167 171 174 178 181 185 188 191 194 196 199 200 198 196 195 196 197 196 196 197 200 206 217 231 246 271 280 236 150 156 158 161 168 173 174 173
132 138 149 153 157 164 169 175 178 183 188 191 196 199 202 206 210 211 209 207 206 204 204 207 208 208 208 208 212 218 228 245 256 263 247 164 163 163 167 174 182 184 184
134 140 151 153 161 172 177 176 182 190 197 200 205 209 211 216 216 213 218 210 207 208 209 212 214 215 215 216 218 220 224 233 240 244 242 173 167 168 171 177 187 192 193
140 143 151 151 164 181 184 162 184 193 194 203 208 204 209 224 233 228 212 208 208 209 212 217 219 220 220 223 219 218 221 227 242 241 218 169 171 172 175 180 189 195 198
143 149 151 149 166 183 176 160 191 196 184 199 215 205 208 222 231 237 214 197 204 209 215 220 220 222 222 225 221 206 218 227 230 239 193 170 174 177 180 184 192 198 202
151 159 149 143 155 203 169 168 192 209 185 200 204 213 212 213 243 257 239 194 197 206 210 219 214 218 225 228 227 209 211 224 235 228 183 177 180 183 185 188 195 201 205
133 132 105 108 123 129 11 341 310 301 291 249 194 208 222 217 235 263 281 278 245 225 207 215 220 224 226 229 233 221 216 223 234 225 184 183 187 191 191 193 198 204 208
115 106 95 85 91 89 27 320 316 317 336 337 346 345 311 284 267 265 272 273 268 261 247 222 224 227 230 231 235 232 228 232 234 234 188 189 197 198 196 197 201 205 209
76 72 74 85 76 72 8 320 299 306 321 331 336 329 312 291 278 277 263 260 260 259 259 248 242 233 230 232 232 230 228 233 238 239 217 191 197 204 204 204 204 206 209
61 61 54 50 57 49 17 333 311 321 326 325 319 317 321 309 288 269 258 253 257 262 253 247 244 237 235 231 229 227 227 226 234 233 226 204 199 208 210 211 208 207 210
59 59 59 48 41 33 13 335 310 317 320 316 317 315 313 305 293 274 260 259 259 261 255 253 238 236 241 237 231 223 222 224 223 228 224 215 209 209 206 211 210 209 210
66 60 57 60 42 16 8 334 314 311 299 289 301 323 316 305 299 301 277 267 265 263 262 257 250 240 240 236 240 235 220 221 211 215 219 220 214 209 207 205 202 211 213
76 71 64 52 43 18 19 344 336 324 305 298 295 303 302 304 310 305 290 283 270 260 258 252 242 243 242 234 234 243 235 227 215 211 212 218 214 208 209 196 189 197 206
87 82 84 57 34 16 18 321 289 300 297 279 309 315 305 310 309 298 306 301 283 265 263 265 246 248 248 229 218 227 225 224 229 220 202 209 217 202 200 195 187 188 196
94 77 64 52 27 11 344 326 332 311 297 315 322 299 314 284 275 297 304 303 305 294 269 263 252 236 250 241 222 220 224 215 205 212 208 202 196 195 197 186 181 181 191
119 130 123 101 29 352 332 340 333 320 321 318 313 308 305 279 271 267 284 292 297 294 296 282 273 253 245 245 235 231 250 281 221 182 219 193 182 190 203 196 184 169 187
323 349 138 135 123 323 317 307 310 315 320 320 324 311 298 273 247 240 241 264 299 301 301 305 304 285 256 247 246 235 240 251 238 211 207 185 180 185 195 191 166 171 181
274 286 306 316 256 281 293 301 301 303 305 305 300 292 285 273 251 230 225 203 273 298 308 301 295 291 285 270 264 262 253 247 232 223 201 190 191 197 190 177 170 167 165
Height
1492 1494 1498 1501 1504 1507 1510 1512 1515 1517 1520 1521 1523 1525 1527 1528 1529 1531 1532 1533 1535 1536 1538 1539 1540 1541 1542 1543 1544 1545 1546 1547 1548 1549 1549 1550 1551 1552 1553 1554 1556 1556 1557
1491 1495 1498 1502 1504 1507 1510 1513 1516 1518 1520 1522 1524 1526 1528 1529 1531 1532 1534 1535 1536 1538 1539 1540 1541 1543 1544 1545 1545 1546 1547 1548 1549 1550 1551 1552 1553 1554 1555 1556 1557 1559 1560
1490 1495 1499 1502 1505 1508 1510 1513 1516 1519 1521 1523 1525 1527 1529 1530 1532 1533 1535 1536 1537 1539 1540 1541 1542 1544 1545 1546 1547 1548 1549 1550 1551 1552 1553 1554 1556 1556 1557 1558 1559 1561 1562
1491 1496 1499 1502 1505 1508 1511 1513 1516 1519 1521 1523 1525 1527 1529 1531 1532 1534 1535 1537 1538 1540 1541 1542 1543 1545 1546 1547 1548 1549 1551 1552 1553 1554 1555 1557 1557 1558 1559 1560 1561 1562 1563
1493 1496 1499 1503 1506 1508 1511 1514 1516 1519 1521 1524 1526 1527 1529 1531 1532 1534 1536 1537 1538 1540 1541 1543 1544 1545 1546 1548 1549 1550 1552 1553 1554 1555 1557 1558 1559 1560 1560 1561 1562 1563 1565
1494 1496 1500 1503 1506 1509 1511 1514 1516 1519 1521 1523 1525 1527 1529 1531 1533 1534 1536 1537 1539 1540 1541 1543 1544 1545 1547 1548 1549 1551 1552 1554 1555 1556 1558 1559 1559 1560 1561 1562 1563 1564 1565
1496 1497 1501 1503 1506 1509 1511 1514 1516 1519 1521 1523 1525 1527 1529 1531 1532 1534 1535 1537 1538 1540 1541 1542 1544 1545 1546 1548 1549 1551 1552 1554 1555 1556 1558 1559 1560 1561 1561 1562 1563 1565 1566
1496 1497 1501 1504 1507 1509 1512 1514 1516 1518 1521 1523 1525 1527 1528 1530 1532 1533 1535 1536 1537 1539 1540 1541 1543 1544 1545 1547 1548 1550 1551 1553 1554 1556 1558 1558 1559 1560 1561 1562 1563 1565 1566
1497 1498 1502 1504 1507 1509 1512 1514 1516 1518 1520 1522 1524 1526 1527 1529 1530 1532 1533 1535 1536 1537 1539 1540 1541 1542 1544 1545 1547 1548 1550 1551 1552 1554 1557 1557 1558 1560 1561 1562 1563 1565 1566
1498 1499 1502 1504 1507 1510 1512 1514 1516 1518 1520 1522 1523 1525 1526 1527 1529 1530 1532 1533 1534 1536 1537 1538 1539 1540 1542 1543 1544 1546 1547 1549 1550 1552 1554 1555 1556 1558 1560 1561 1563 1564 1565
1500 1501 1503 1505 1507 1510 1512 1514 1516 1518 1519 1521 1522 1524 1525 1526 1527 1528 1530 1531 1532 1533 1535 1536 1537 1538 1539 1540 1541 1543 1544 1546 1548 1550 1552 1553 1554 1556 1558 1560 1561 1563 1564
1501 1503 1505 1506 1508 1511 1514 1514 1516 1517 1518 1519 1521 1522 1523 1525 1526 1528 1528 1529 1530 1531 1532 1533 1534 1535 1536 1537 1538 1539 1541 1543 1544 1546 1548 1550 1551 1553 1555 1557 1559 1560 1562
1501 1504 1506 1507 1509 1512 1514 1514 1516 1517 1517 1518 1519 1520 1521 1523 1524 1526 1527 1526 1527 1528 1529 1530 1531 1531 1532 1533 1535 1535 1537 1539 1541 1543 1545 1546 1548 1550 1552 1554 1556 1557 1560
1502 1504 1507 1507 1508 1511 1514 1515 1516 1517 1518 1518 1517 1518 1519 1520 1522 1524 1525 1525 1524 1524 1525 1526 1527 1528 1529 1530 1531 1532 1534 1535 1538 1539 1540 1541 1544 1546 1548 1550 1552 1554 1556
1501 1504 1505 1506 1507 1509 1511 1513 1515 1515 1516 1517 1516 1515 1516 1517 1518 1519 1520 1520 1521 1521 1522 1523 1523 1524 1525 1526 1528 1529 1530 1532 1534 1536 1536 1537 1539 1541 1544 1545 1548 1550 1553
1500 1503 1504 1505 1506 1508 1509 1511 1512 1513 1513 1514 1514 1513 1513 1513 1514 1514 1515 1515 1516 1517 1517 1518 1519 1520 1521 1522 1523 1524 1525 1527 1529 1531 1532 1533 1535 1537 1540 1541 1543 1546 1548
1500 1501 1503 1505 1505 1506 1507 1508 1510 1510 1510 1510 1510 1510 1509 1509 1510 1510 1510 1510 1511 1512 1512 1513 1514 1514 1515 1517 1517 1519 1519 1521 1523 1525 1527 1529 1530 1533 1535 1537 1539 1541 1544
1499 1500 1502 1504 1504 1505 1506 1506 1507 1507 1506 1506 1506 1506 1506 1505 1504 1504 1504 1504 1505 1506 1506 1507 1508 1508 1510 1511 1512 1513 1514 1516 1518 1519 1522 1524 1526 1527 1529 1532 1534 1537 1540
1499 1500 1502 1503 1503 1504 1505 1504 1505 1504 1504 1504 1503 1502 1501 1501 1499 1498 1498 1497 1498 1499 1500 1501 1502 1503 1504 1506 1507 1508 1509 1511 1512 1514 1516 1518 1520 1522 1525 1527 1530 1532 1535
1500 1501 1502 1503 1503 1503 1503 1503 1503 1502 1502 1501 1500 1499 1498 1497 1495 1494 1493 1492 1493 1493 1494 1495 1496 1497 1499 1501 1502 1504 1505 1506 1508 1509 1510 1513 1515 1517 1520 1522 1525 1528 1530
1501 1502 1502 1503 1503 1502 1502 1502 1501 1501 1500 1499 1498 1496 1495 1493 1492 1490 1489 1489 1488 1488 1488 1489 1491 1492 1494 1496 1498 1499 1501 1502 1503 1504 1506 1507 1510 1512 1515 1518 1520 1523 1525
1502 1502 1502 1502 1502 1502 1501 1500 1500 1499 1498 1497 1495 1494 1492 1491 1489 1488 1486 1485 1485 1485 1485 1485 1487 1488 1490 1492 1494 1496 1497 1498 1498 1499 1501 1503 1505 1508 1511 1513 1516 1519 1521
1503 1503 1503 1502 1501 1501 1500 1499 1499 1497 1496 1495 1494 1492 1490 1489 1487 1486 1484 1483 1482 1482 1482 1482 1483 1485 1486 1487 1490 1492 1493 1492 1493 1496 1497 1499 1502 1505 1507 1510 1513 1515 1517
1503 1502 1502 1501 1500 1499 1499 1498 1497 1496 1495 1493 1492 1490 1488 1486 1485 1484 1482 1481 1480 1480 1480 1480 1480 1481 1482 1484 1486 1487 1489 1489 1491 1492 1494 1496 1498 1501 1504 1506 1509 1511 1513
1502 1502 1501 1500 1499 1498 1497 1496 1495 1493 1492 1490 1489 1487 1485 1484 1482 1481 1480 1479 1478 1477 1477 1477 1477 1478 1478 1480 1481 1483 1485 1486 1487 1490 1491 1493 1495 1497 1500 1503 1505 1507 1509
1500 1500 1499 1498 1497 1496 1494 1493 1492 1490 1488 1487 1485 1484 1482 1481 1480 1478 1477 1476 1475 1475 1474 1474 1475 1475 1475 1476 1477 1479 1481 1483 1484 1486 1488 1489 1491 1493 1496 1499 1502 1504 1506